[[{"header":{"parameterUnit":"m.s-1","parameterCategory":2,"la1":30.2991,"la2":30.254,"lo1":-89.0895,"lo2":-89.0444,"dy":0.0017,"dx":0.0017,"nx":28,"ny":28,"refTime":"2024-10-03T03:00:00:Z","depth":"0","parameterNumber":2,"parameterNumberName":"U-component_of_CURRENTS"},"data":[0,0,0,0,0,0,0,0,0,0,0,0,0,0,0,0,0,0,0,0,0,0,0,0,0,0,0,0,0,0,0,0,0,0,0,0,0,0,0,0,0,0,0,0,0,0,0,0,0,0,0,0,0,0,0,0,0,0,0.2317,0.2316,0,0.2262,0.2262,0.2262,0.2192,0.2191,0.2189,0.2188,0.2073,0.2071,0.2069,0,0,0,0,0,0,0,0,0,0,0,0,0,0.2415,0.2414,0.2317,0.2316,0.2315,0.2262,0.2262,0.2262,0.2193,0.2191,0.2189,0.2187,0.2073,0.2071,0.2069,0,0,0,0,0,0,0,0,0,0,0,0,0,0.2371,0.2413,0.2317,0.2271,0.2266,0.2262,0.2262,0.2262,0.2193,0.2191,0.2189,0.2187,0.2074,0.2071,0.2069,0.2096,0,0,0.2061,0.206,0,0,0,0,0,0,0,0,0.2374,0.2368,0.2279,0.2274,0.2269,0.2229,0.2254,0.2202,0.2194,0.2225,0.2188,0.2186,0.2118,0.2112,0.2113,0.2091,0.2086,0.2061,0.2059,0.2058,0.2057,0,0,0,0,0,0,0,0.2377,0.237,0.2299,0.2278,0.2272,0.2272,0.2263,0.2245,0.2186,0.2222,0.2216,0.2205,0.2115,0.2116,0.2109,0.2084,0.2061,0.2058,0.2057,0.2056,0.2134,0.2138,0,0,0,0,0,0,0.2376,0.2373,0.2301,0.2297,0.2313,0.2272,0.2262,0.2247,0.2187,0.2176,0.2207,0.2202,0.2121,0.2112,0.2105,0.2163,0.2058,0.2056,0.2054,0.2131,0.2135,0.2139,0,0,0,0,0,0,0.2378,0.237,0.2303,0.2331,0.2322,0.2271,0.2256,0.2247,0.2249,0.2176,0.2163,0.2217,0.2119,0.2108,0.2122,0.2156,0.2054,0.2052,0.2126,0.2132,0.2137,0.226,0,0,0,0,0,0,0.2381,0.2371,0.2384,0.2331,0.232,0.2322,0.2257,0.2247,0.2243,0.2237,0.2181,0.2168,0.2116,0.2127,0.212,0.2151,0.205,0.2122,0.2129,0.2135,0.2251,0.2269,0.2284,0,0,0,0,0,0.2385,0.2405,0.2385,0.2377,0.2332,0.2324,0.2321,0.2279,0.2246,0.2269,0.224,0.217,0.2164,0.2128,0.2119,0.2149,0.2118,0.2127,0.2135,0.2244,0.2265,0.2283,0,0,0,0,0,0,0.2468,0.2398,0.2375,0.2377,0.2362,0.2311,0.2327,0.2297,0.2293,0.2285,0.2214,0.2202,0.2228,0.2189,0.215,0.22,0.2131,0.2138,0.2217,0.2237,0.2253,0.2219,0.2048,0,0,0,0,0,0.249,0.2478,0.2427,0.2436,0.2429,0.2385,0.2382,0.2352,0.2328,0.2323,0.2284,0.2258,0.2258,0.2246,0.2236,0.2261,0.2256,0.228,0.2296,0.231,0.2282,0.2342,0.2361,0.2166,0.2166,0.2165,0,0,0.252,0.2486,0.2478,0.2453,0.2434,0.2433,0.2379,0.2381,0.2382,0.2313,0.2322,0.2314,0.2282,0.2313,0.232,0.2278,0.2379,0.2321,0.2332,0.2295,0.2353,0.2371,0.2388,0.2171,0.217,0.2169,0,0,0.2563,0.2551,0.2546,0.254,0.2515,0.2494,0.2499,0.2462,0.2453,0.2469,0.2429,0.2442,0.2429,0.2414,0.2404,0.2508,0.2469,0.252,0.2559,0.2621,0.2636,0.2649,0.2723,0.2742,0.252,0.252,0.252,0,0.26,0.258,0.2556,0.2556,0.2547,0.2522,0.2522,0.2528,0.2504,0.2503,0.2487,0.2498,0.247,0.25,0.2535,0.2537,0.2577,0.2482,0.2639,0.2652,0.2663,0.2735,0.2754,0.2527,0.2526,0.2525,0.2525,0,0.2623,0.262,0.2628,0.2605,0.2614,0.2617,0.2603,0.2623,0.2611,0.2596,0.2631,0.2622,0.2617,0.2635,0.2605,0.268,0.2689,0.266,0.258,0.2689,0.276,0.2778,0.2537,0.2534,0.2532,0.253,0,0,0.2632,0.2635,0.263,0.2623,0.263,0.2624,0.2666,0.267,0.268,0.2698,0.2716,0.2737,0.273,0.272,0.2712,0.2754,0.2888,0.2743,0.2743,0.2801,0.3055,0.3025,0.3041,0.2901,0.2903,0.2905,0.3092,0,0.2639,0.2639,0.2643,0.2653,0.2648,0.2659,0.269,0.2706,0.2726,0.2754,0.2768,0.2789,0.2768,0.2779,0.2827,0.2857,0.2931,0.2841,0.2951,0.2954,0.2901,0.3058,0.2953,0.3106,0.3109,0.3111,0.3113,0,0.2625,0.2627,0.2632,0.2643,0.2642,0.2657,0.2687,0.2712,0.2768,0.2785,0.2829,0.2846,0.2906,0.2879,0.3003,0.2956,0.3017,0.3047,0.3055,0.2977,0.2954,0.2989,0.3137,0.2955,0.3139,0.3137,0.3135,0,0.2588,0.2603,0.2601,0.2606,0.2633,0.2644,0.2662,0.2713,0.2732,0.2809,0.2836,0.2919,0.2944,0.3045,0.3107,0.3079,0.325,0.3219,0.3261,0.326,0.3158,0.3143,0.3114,0.3332,0.3332,0.3331,0.3331,0,0.2559,0.2551,0.2582,0.2576,0.258,0.2613,0.263,0.2669,0.2731,0.276,0.2841,0.2887,0.2986,0.3086,0.3163,0.327,0.331,0.3291,0.3311,0.3206,0.3194,0.3015,0.2931,0.3338,0.3337,0.3335,0.3334,0,0.25,0.2523,0.2519,0.255,0.2557,0.2557,0.2592,0.2612,0.268,0.2732,0.2761,0.2878,0.3015,0.3132,0.3286,0.3317,0.3329,0.3464,0.3339,0.334,0.3178,0.3107,0.3052,0.297,0.3554,0.3554,0.3555,0,0.2462,0.2457,0.2483,0.2479,0.2486,0.2496,0.2506,0.2573,0.2601,0.2722,0.2745,0.2895,0.2996,0.3223,0.3333,0.3506,0.3352,0.3468,0.3372,0.3172,0.3109,0.2989,0.2914,0.3324,0.3323,0.3322,0.3321,0,0.2389,0.2405,0.2407,0.2406,0.2409,0.2413,0.2437,0.2453,0.2543,0.261,0.2712,0.2813,0.3035,0.3146,0.3345,0.3431,0.3254,0.3445,0.3271,0.2955,0.2789,0.2717,0.3206,0.3309,0.331,0.3311,0.3312,0.3312,0.2331,0.2317,0.2325,0.2319,0.2322,0.2317,0.2296,0.2355,0.2404,0.2492,0.2634,0.2755,0.2919,0.3191,0.3261,0.3205,0.3206,0.309,0.3041,0.2953,0.2787,0.3254,0.3342,0.3343,0.3345,0.3346,0.3346,0,0.2248,0.2241,0.223,0.2217,0.2185,0.222,0.2233,0.2217,0.2254,0.2403,0.2507,0.265,0.2749,0.2865,0.2896,0.2792,0.2715,0.267,0.2446,0.2411,0.2861,0.2756,0.2679,0.2679,0.2679,0.2679,0.2679,0.2679,0.2197,0.2159,0.2158,0.2082,0.2066,0.2004,0.1993,0.2015,0.2092,0.2178,0.226,0.2382,0.2446,0.2443,0.233,0.2319,0.211,0.2048,0.201,0.2262,0.2294,0.2325,0.2204,0.2011,0.2011,0.1483,0.1478,0.1474]},{"header":{"parameterUnit":"m.s-1","parameterCategory":2,"la1":30.2991,"la2":30.254,"lo1":-89.0895,"lo2":-89.0444,"dy":0.0017,"dx":0.0017,"nx":28,"ny":28,"refTime":"2024-10-03T03:00:00:Z","depth":"0","parameterNumber":3,"parameterNumberName":"V-component_of_CURRENTS"},"data":[0,0,0,0,0,0,0,0,0,0,0,0,0,0,0,0,0,0,0,0,0,0,0,0,0,0,0,0,0,0,0,0,0,0,0,0,0,0,0,0,0,0,0,0,0,0,0,0,0,0,0,0,0,0,0,0,0,0,-0.0454,-0.0454,0,-0.0446,-0.0446,-0.0446,-0.0402,-0.0401,-0.04,-0.0399,-0.0362,-0.0362,-0.0362,0,0,0,0,0,0,0,0,0,0,0,0,0,-0.0483,-0.0482,-0.0454,-0.0454,-0.0454,-0.0446,-0.0446,-0.0446,-0.0403,-0.0401,-0.04,-0.0398,-0.0362,-0.0362,-0.0362,0,0,0,0,0,0,0,0,0,0,0,0,0,-0.0473,-0.0482,-0.0454,-0.043,-0.0428,-0.0446,-0.0446,-0.0446,-0.0403,-0.0401,-0.0399,-0.0398,-0.0362,-0.0362,-0.0362,-0.0398,0,0,-0.0363,-0.0363,0,0,0,0,0,0,0,0,-0.0474,-0.0472,-0.0434,-0.0432,-0.0429,-0.0422,-0.0442,-0.0428,-0.0403,-0.0414,-0.0399,-0.0397,-0.038,-0.0379,-0.0383,-0.0396,-0.0394,-0.0363,-0.0363,-0.0363,-0.0363,0,0,0,0,0,0,0,-0.0474,-0.0473,-0.0452,-0.0434,-0.0431,-0.0437,-0.0433,-0.044,-0.0407,-0.0413,-0.0409,-0.0407,-0.0378,-0.0383,-0.0382,-0.0394,-0.0363,-0.0363,-0.0363,-0.0363,-0.0336,-0.0336,0,0,0,0,0,0,-0.0472,-0.0473,-0.0453,-0.0452,-0.0446,-0.0438,-0.0434,-0.0427,-0.0408,-0.0403,-0.0408,-0.0405,-0.0384,-0.0382,-0.038,-0.0322,-0.0363,-0.0363,-0.0363,-0.0337,-0.0336,-0.0335,0,0,0,0,0,0,-0.0473,-0.047,-0.0453,-0.0462,-0.0459,-0.0438,-0.0432,-0.0428,-0.0426,-0.0404,-0.0399,-0.0409,-0.0382,-0.038,-0.0372,-0.0324,-0.0363,-0.0363,-0.0338,-0.0337,-0.0336,-0.0269,0,0,0,0,0,0,-0.0474,-0.0471,-0.0481,-0.0461,-0.0459,-0.0452,-0.0434,-0.0429,-0.0427,-0.0422,-0.0404,-0.0399,-0.0381,-0.0372,-0.0372,-0.0324,-0.0363,-0.0339,-0.0337,-0.0336,-0.0272,-0.0265,-0.026,0,0,0,0,0,-0.0475,-0.0489,-0.0481,-0.0479,-0.0468,-0.0452,-0.0452,-0.0433,-0.0429,-0.0426,-0.0412,-0.0399,-0.0362,-0.0373,-0.0373,-0.0324,-0.034,-0.0338,-0.0336,-0.0275,-0.0267,-0.026,0,0,0,0,0,0,-0.0528,-0.0486,-0.0476,-0.0484,-0.0464,-0.0444,-0.045,-0.044,-0.0431,-0.0426,-0.0408,-0.0402,-0.0369,-0.0373,-0.0386,-0.0313,-0.0342,-0.034,-0.0295,-0.0287,-0.0282,-0.0254,-0.0363,0,0,0,0,0,-0.0541,-0.0527,-0.0497,-0.0506,-0.0494,-0.0476,-0.0475,-0.0456,-0.044,-0.0435,-0.0418,-0.0397,-0.0367,-0.035,-0.0336,-0.0316,-0.0329,-0.028,-0.0274,-0.0269,-0.0247,-0.025,-0.0241,-0.0329,-0.0329,-0.0329,0,0,-0.0567,-0.0543,-0.0538,-0.0514,-0.0501,-0.0459,-0.0471,-0.0461,-0.0413,-0.0435,-0.0385,-0.0386,-0.0361,-0.0317,-0.0302,-0.031,-0.0254,-0.0266,-0.0261,-0.0243,-0.0247,-0.0238,-0.023,-0.0328,-0.0328,-0.0329,0,0,-0.0575,-0.0585,-0.0553,-0.0528,-0.0496,-0.0474,-0.0469,-0.0441,-0.0416,-0.0384,-0.0369,-0.0346,-0.0319,-0.0274,-0.0249,-0.0211,-0.0229,-0.0208,-0.0144,-0.0146,-0.0139,-0.0132,-0.0151,-0.0147,-0.0197,-0.0196,-0.0196,0,-0.0598,-0.0554,-0.055,-0.0501,-0.0471,-0.0471,-0.0417,-0.0395,-0.0365,-0.0336,-0.0354,-0.0291,-0.0282,-0.0197,-0.0173,-0.019,-0.0212,-0.017,-0.0137,-0.0131,-0.0125,-0.0147,-0.0143,-0.0193,-0.0193,-0.0194,-0.0194,0,-0.0555,-0.0522,-0.0509,-0.0426,-0.0403,-0.0371,-0.0322,-0.0297,-0.028,-0.0248,-0.019,-0.0189,-0.0144,-0.0134,-0.0137,-0.0076,-0.0112,-0.0137,-0.0153,-0.0112,-0.0138,-0.0135,-0.0188,-0.0189,-0.019,-0.0191,0,0,-0.0562,-0.0485,-0.0471,-0.0421,-0.0356,-0.0327,-0.0253,-0.0179,-0.0124,-0.0107,-0.0035,0.0009,-0.0012,0.0012,0.0004,0.0009,0.0022,-0.0043,-0.0044,-0.0056,-0.0003,-0.0001,0.0002,-0.0007,-0.0006,-0.0005,-0.0041,0,-0.0509,-0.0412,-0.0381,-0.0284,-0.0228,-0.0198,-0.0127,-0.0069,-0.0032,0.0026,0.0043,0.0091,0.0053,0.0064,0.0069,0.0035,0.0034,0.0033,-0.0044,-0.0046,-0.0044,0.0008,0.0046,0.002,-0.0039,-0.0038,-0.0038,0,-0.0442,-0.0385,-0.0285,-0.0193,-0.0165,-0.0112,-0.0009,0.0053,0.013,0.0154,0.0195,0.0192,0.0229,0.0167,0.0146,0.014,0.0081,0.0042,0.0039,0.0027,-0.0037,-0.0028,0.0027,-0.0075,-0.0034,-0.0034,-0.0034,0,-0.0417,-0.0309,-0.023,-0.0196,-0.0097,-0.0047,0.0006,0.0091,0.0157,0.0226,0.0264,0.029,0.0298,0.0248,0.018,0.0154,0.0134,0.0082,0.0031,0.0029,0.0044,0.0042,0.0003,0.0062,0.0062,0.0062,0.0063,0,-0.0356,-0.0291,-0.0217,-0.017,-0.0072,-0.0021,0.0083,0.0138,0.0223,0.0313,0.0318,0.0379,0.0313,0.0297,0.0216,0.0149,0.0159,0.0065,0.0035,0.0065,0.0066,-0.0037,-0.0106,0.0061,0.0061,0.0062,0.0062,0,-0.0331,-0.0282,-0.0188,-0.009,-0.0056,0.0011,0.0125,0.0205,0.0263,0.0376,0.04,0.0442,0.0431,0.0366,0.0286,0.0198,0.0086,0.0095,0.0133,0.011,-0.0037,-0.0104,-0.0141,-0.0179,0.0033,0.0033,0.0033,0,-0.0306,-0.0255,-0.0144,-0.0082,-0.0035,0.0061,0.0141,0.0221,0.0309,0.0427,0.049,0.0512,0.0569,0.0461,0.0332,0.0214,0.0105,0.0124,0.0094,-0.0013,-0.011,-0.0141,-0.0172,0.0124,0.0124,0.0125,0.0126,0,-0.0256,-0.0224,-0.015,-0.0033,0.0056,0.0163,0.0273,0.0344,0.0454,0.0547,0.0659,0.0708,0.0636,0.0575,0.0411,0.0299,0.0076,0.0132,0.002,-0.0026,-0.0059,-0.012,0.0093,0.0131,0.0131,0.013,0.013,0.013,-0.0224,-0.0169,-0.0075,0.0037,0.0142,0.0271,0.0367,0.0484,0.0625,0.0799,0.0801,0.093,0.0796,0.0607,0.0424,0.0126,0.0115,0.0029,-0.004,-0.0059,-0.0087,0.0138,0.0144,0.0143,0.0143,0.0143,0.0142,0,-0.017,-0.0105,-0.0002,0.0141,0.0262,0.0305,0.0473,0.058,0.0753,0.0927,0.104,0.1096,0.0904,0.0649,0.0259,0.0014,-0.0081,-0.0132,-0.0173,-0.0197,0.0006,0.0018,-0.0,-0.0,-0.0,0.0,0.0,0.0,-0.0131,-0.0034,0.0019,0.0222,0.0325,0.0495,0.0595,0.0751,0.0906,0.1144,0.1284,0.1361,0.1164,0.0466,-0.0037,-0.0174,-0.0346,-0.0364,-0.0468,-0.0351,-0.0341,-0.0332,-0.0336,-0.0428,-0.0428,-0.0611,-0.0613,-0.0615]}],[{"header":{"parameterUnit":"m.s-1","parameterCategory":2,"la1":30.2991,"la2":30.254,"lo1":-89.0895,"lo2":-89.0444,"dy":0.0017,"dx":0.0017,"nx":28,"ny":28,"refTime":"2024-10-03T03:00:00:Z","depth":"2","parameterNumber":2,"parameterNumberName":"U-component_of_CURRENTS"},"data":[0,0,0,0,0,0,0,0,0,0,0,0,0,0,0,0,0,0,0,0,0,0,0,0,0,0,0,0,0,0,0,0,0,0,0,0,0,0,0,0,0,0,0,0,0,0,0,0,0,0,0,0,0,0,0,0,0,0,0.1702,0.1703,0,0.1745,0.1745,0.1745,0.1726,0.1726,0.1725,0.1725,0.1758,0.176,0.1761,0,0,0,0,0,0,0,0,0,0,0,0,0,0.1656,0.1656,0.1702,0.1703,0.1704,0.1745,0.1745,0.1745,0.1726,0.1726,0.1725,0.1725,0.1758,0.1759,0.1761,0,0,0,0,0,0,0,0,0,0,0,0,0,0.1679,0.1656,0.1702,0.1704,0.1706,0.1745,0.1745,0.1745,0.1726,0.1726,0.1725,0.1724,0.1757,0.1759,0.1761,0.1787,0,0,0.1767,0.1768,0,0,0,0,0,0,0,0,0.1677,0.1679,0.1703,0.1704,0.1706,0.1735,0.1741,0.1761,0.1727,0.1712,0.1725,0.1724,0.1754,0.1757,0.1757,0.1789,0.179,0.1767,0.1769,0.177,0.177,0,0,0,0,0,0,0,0.1676,0.1678,0.1712,0.1704,0.1706,0.1722,0.1723,0.1745,0.1731,0.1713,0.1713,0.1729,0.1754,0.1755,0.1758,0.1791,0.1767,0.1769,0.177,0.1771,0.1938,0.1941,0,0,0,0,0,0,0.1681,0.1676,0.1711,0.1714,0.1697,0.1724,0.1725,0.1721,0.1731,0.1734,0.1729,0.1728,0.1752,0.1756,0.1759,0.1923,0.177,0.1771,0.1773,0.1935,0.1939,0.1943,0,0,0,0,0,0,0.168,0.1683,0.1709,0.1703,0.1708,0.1725,0.1721,0.1723,0.1739,0.1745,0.1746,0.1747,0.1752,0.1756,0.1822,0.1919,0.1772,0.1774,0.1931,0.1936,0.1941,0.2166,0,0,0,0,0,0,0.1678,0.1682,0.1684,0.1702,0.1709,0.1744,0.1723,0.1724,0.1752,0.1751,0.1761,0.1762,0.1752,0.182,0.1824,0.1919,0.1776,0.1927,0.1934,0.1939,0.2154,0.2178,0.2198,0,0,0,0,0,0.1676,0.1675,0.1684,0.1689,0.1709,0.1746,0.1751,0.1757,0.1754,0.1767,0.1799,0.1763,0.1861,0.1825,0.1829,0.1926,0.1924,0.1932,0.1939,0.2144,0.2173,0.2197,0,0,0,0,0,0,0.1651,0.1675,0.1684,0.1689,0.1726,0.1746,0.1769,0.1773,0.1805,0.1811,0.1808,0.1814,0.1905,0.1877,0.1837,0.1988,0.1885,0.1894,0.204,0.2067,0.2088,0.2052,0.1777,0,0,0,0,0,0.1652,0.1669,0.1694,0.1712,0.173,0.1756,0.1775,0.178,0.1812,0.1824,0.1852,0.1882,0.1936,0.1969,0.199,0.2079,0.2047,0.2139,0.2161,0.218,0.2152,0.2217,0.2242,0.1967,0.1967,0.1966,0,0,0.1669,0.1673,0.1694,0.1712,0.1743,0.1823,0.1764,0.1802,0.1887,0.1826,0.1953,0.1955,0.1971,0.2077,0.2116,0.2072,0.2251,0.2189,0.2206,0.2166,0.2227,0.2254,0.2278,0.1972,0.1971,0.197,0,0,0.1732,0.17,0.1761,0.1796,0.1841,0.186,0.188,0.1924,0.1952,0.2062,0.2051,0.2105,0.2194,0.2226,0.2256,0.2403,0.2356,0.242,0.2521,0.2588,0.2611,0.2631,0.2665,0.2685,0.2443,0.2444,0.2444,0,0.1767,0.1816,0.1787,0.1865,0.1908,0.1896,0.1988,0.2037,0.2105,0.2135,0.2131,0.2255,0.2271,0.2394,0.2452,0.2456,0.2466,0.2432,0.2619,0.2637,0.2653,0.2682,0.2702,0.2455,0.2454,0.2453,0.2452,0,0.1885,0.1941,0.1978,0.208,0.2116,0.2177,0.2236,0.2285,0.2321,0.2364,0.2466,0.249,0.2545,0.259,0.2578,0.2708,0.2669,0.2636,0.2556,0.2695,0.2717,0.2734,0.2472,0.2468,0.2464,0.2462,0,0,0.1949,0.2047,0.2068,0.2128,0.2218,0.2248,0.2388,0.2474,0.2536,0.2622,0.2713,0.2821,0.2778,0.2801,0.2792,0.2854,0.3007,0.2805,0.2803,0.2844,0.3145,0.2882,0.2874,0.3023,0.3026,0.3029,0.3128,0,0.2072,0.221,0.2235,0.2397,0.2474,0.2488,0.2602,0.2669,0.2721,0.2806,0.2837,0.2917,0.2885,0.2901,0.2973,0.298,0.3054,0.298,0.2995,0.2994,0.2749,0.2885,0.2689,0.2738,0.3144,0.3147,0.3148,0,0.2212,0.226,0.2412,0.2505,0.2537,0.263,0.2711,0.2807,0.2909,0.2942,0.3013,0.3023,0.3126,0.3067,0.3185,0.3144,0.3156,0.3162,0.3167,0.2834,0.2759,0.2656,0.2752,0.3175,0.3173,0.3171,0.3169,0,0.2243,0.2397,0.2489,0.2534,0.2645,0.2696,0.275,0.2843,0.2886,0.3011,0.3039,0.316,0.3189,0.3266,0.3256,0.3254,0.3345,0.3349,0.3128,0.3111,0.2889,0.2842,0.3432,0.3432,0.3432,0.3432,0.3431,0,0.235,0.2437,0.2503,0.2551,0.2627,0.2705,0.2781,0.2849,0.2933,0.2984,0.3085,0.3129,0.3237,0.3283,0.331,0.3237,0.3399,0.3142,0.312,0.296,0.2921,0.3231,0.3207,0.3435,0.3435,0.3434,0.3433,0,0.2396,0.2461,0.2552,0.263,0.2653,0.2696,0.2759,0.2802,0.2894,0.2963,0.3002,0.3126,0.317,0.3216,0.3308,0.3243,0.3243,0.3172,0.2941,0.2884,0.2969,0.2956,0.2993,0.2984,0.2977,0.2971,0.2966,0,0.2435,0.2487,0.2551,0.2568,0.2605,0.2659,0.2686,0.2773,0.281,0.2942,0.2971,0.3036,0.3016,0.3015,0.2954,0.292,0.3051,0.269,0.2622,0.295,0.2927,0.2924,0.292,0.2472,0.2463,0.2456,0.2451,0,0.2461,0.2479,0.2507,0.2532,0.2563,0.2581,0.2632,0.2649,0.2752,0.2774,0.2816,0.281,0.2772,0.2608,0.2502,0.2478,0.2679,0.2532,0.3001,0.255,0.2449,0.2428,0.2445,0.2388,0.2394,0.2399,0.2402,0.2405,0.2442,0.2445,0.2463,0.2483,0.2498,0.2496,0.2485,0.25,0.2494,0.245,0.256,0.2422,0.2406,0.209,0.2037,0.2018,0.219,0.2143,0.2172,0.2207,0.2065,0.1949,0.177,0.1773,0.1775,0.1777,0.1779,0,0.24,0.2408,0.2411,0.2407,0.2376,0.2422,0.2433,0.2344,0.2261,0.2177,0.2084,0.1815,0.1654,0.1687,0.1545,0.1502,0.1583,0.1468,0.1601,0.1661,0.1715,0.1556,0.1123,0.1121,0.112,0.1118,0,0,0.2382,0.2359,0.2351,0.2283,0.2278,0.2207,0.2197,0.2017,0.1915,0.1649,0.1504,0.1448,0.156,0.1279,0.1259,0.1184,0.1421,0.1136,0.1659,0.1873,0.1925,0.2091,0.1907,0,0,0,0,0]},{"header":{"parameterUnit":"m.s-1","parameterCategory":2,"la1":30.2991,"la2":30.254,"lo1":-89.0895,"lo2":-89.0444,"dy":0.0017,"dx":0.0017,"nx":28,"ny":28,"refTime":"2024-10-03T03:00:00:Z","depth":"2","parameterNumber":3,"parameterNumberName":"V-component_of_CURRENTS"},"data":[0,0,0,0,0,0,0,0,0,0,0,0,0,0,0,0,0,0,0,0,0,0,0,0,0,0,0,0,0,0,0,0,0,0,0,0,0,0,0,0,0,0,0,0,0,0,0,0,0,0,0,0,0,0,0,0,0,0,0.0217,0.0217,0,0.0217,0.0217,0.0218,0.0166,0.0164,0.0162,0.0161,0.0037,0.0036,0.0034,0,0,0,0,0,0,0,0,0,0,0,0,0,0.0234,0.0234,0.0217,0.0216,0.0216,0.0217,0.0217,0.0218,0.0166,0.0164,0.0162,0.016,0.0038,0.0036,0.0034,0,0,0,0,0,0,0,0,0,0,0,0,0,0.0234,0.0234,0.0217,0.0187,0.0184,0.0217,0.0217,0.0218,0.0167,0.0164,0.0161,0.0159,0.0039,0.0036,0.0034,0.0072,0,0,0.0026,0.0025,0,0,0,0,0,0,0,0,0.0234,0.0234,0.0192,0.0189,0.0186,0.0185,0.0178,0.0161,0.0167,0.0178,0.0161,0.0158,0.0074,0.0069,0.0083,0.0066,0.0061,0.0026,0.0025,0.0024,0.0023,0,0,0,0,0,0,0,0.0234,0.0234,0.0221,0.0192,0.0188,0.0194,0.0191,0.0176,0.0142,0.0177,0.0172,0.0166,0.0072,0.0086,0.0079,0.0059,0.0026,0.0024,0.0023,0.0022,-0.0025,-0.0025,0,0,0,0,0,0,0.0224,0.0234,0.0221,0.0221,0.0199,0.0196,0.0193,0.0192,0.0145,0.0135,0.0168,0.0163,0.0091,0.0082,0.0074,0.0028,0.0024,0.0021,0.002,-0.0026,-0.0025,-0.0025,0,0,0,0,0,0,0.0225,0.0224,0.0221,0.0223,0.0223,0.0197,0.0197,0.0193,0.0194,0.0139,0.0127,0.0171,0.0089,0.0078,0.0025,0.0026,0.002,0.0018,-0.0026,-0.0026,-0.0025,-0.0008,0,0,0,0,0,0,0.0226,0.0224,0.0235,0.0223,0.0222,0.024,0.0199,0.0195,0.0192,0.0186,0.0138,0.0124,0.0086,0.0028,0.0022,0.0022,0.0016,-0.0026,-0.0026,-0.0025,-0.0009,-0.0007,-0.0006,0,0,0,0,0,0.0226,0.0257,0.0236,0.0235,0.0233,0.0241,0.0243,0.0218,0.0195,0.0208,0.0145,0.0125,0.0027,0.0026,0.0019,0.0018,-0.0026,-0.0026,-0.0025,-0.001,-0.0008,-0.0006,0,0,0,0,0,0,0.0285,0.0254,0.023,0.0253,0.0242,0.023,0.0245,0.0226,0.0197,0.018,0.0122,0.0105,0.0062,0.0044,0.0044,0.0008,0.0001,0.0,0.0016,0.0017,0.0019,0.0063,0.0014,0,0,0,0,0,0.0299,0.0303,0.0276,0.0294,0.0289,0.0267,0.0271,0.025,0.0218,0.0205,0.0163,0.0115,0.0068,0.0041,0.0009,-0.0009,0.0004,-0.0011,-0.0009,-0.0008,0.0024,0.0036,0.0042,-0.0024,-0.0024,-0.0024,0,0,0.0323,0.031,0.0311,0.0305,0.0295,0.0299,0.0264,0.027,0.0268,0.0194,0.0179,0.0122,0.0064,0.003,0.0011,0.0007,0.0014,-0.0007,-0.0006,0.0026,0.0037,0.0044,0.005,-0.0023,-0.0023,-0.0023,0,0,0.0373,0.0363,0.0376,0.0368,0.035,0.0337,0.0336,0.0316,0.0302,0.0278,0.0211,0.0157,0.0106,0.0058,0.0026,0.0028,0.0023,0.0012,0.0052,0.0062,0.0068,0.0073,0.0086,0.0093,0.0011,0.0011,0.0011,0,0.0396,0.0412,0.0386,0.0395,0.0394,0.0351,0.0366,0.0356,0.0319,0.0316,0.0274,0.0195,0.0129,0.0085,0.006,0.0034,0.0039,0.0042,0.0065,0.0071,0.0077,0.0089,0.0096,0.0012,0.0012,0.0012,0.0012,0,0.0448,0.0457,0.047,0.0455,0.0458,0.0469,0.0435,0.0435,0.0404,0.0387,0.035,0.026,0.0215,0.0172,0.0102,0.0098,0.0089,0.0066,0.0063,0.0085,0.0095,0.0103,0.0013,0.0013,0.0013,0.0012,0,0,0.0494,0.0501,0.0501,0.0509,0.049,0.05,0.0501,0.05,0.0518,0.0463,0.0485,0.0362,0.032,0.0282,0.0194,0.0178,0.0182,0.013,0.013,0.015,0.021,0.0123,0.0122,0.0157,0.0158,0.0159,0.0198,0,0.0533,0.0571,0.0561,0.0593,0.0609,0.058,0.0594,0.0585,0.057,0.0584,0.0501,0.0477,0.0359,0.0325,0.0289,0.0218,0.0204,0.0175,0.0183,0.0184,0.0109,0.0129,0.0112,0.0138,0.0205,0.0206,0.0207,0,0.0578,0.0599,0.0641,0.0668,0.0673,0.0685,0.0712,0.0719,0.0718,0.0707,0.0672,0.062,0.056,0.047,0.0389,0.0374,0.0298,0.0245,0.0245,0.0173,0.0111,0.0129,0.0148,0.0219,0.0218,0.0217,0.0216,0,0.0625,0.0655,0.0695,0.0701,0.0722,0.0741,0.0749,0.0759,0.0779,0.0791,0.0812,0.075,0.0718,0.0636,0.0482,0.0448,0.042,0.0368,0.0229,0.0223,0.0218,0.0208,0.0341,0.0341,0.0341,0.0341,0.0341,0,0.0672,0.0701,0.0722,0.0744,0.0798,0.0794,0.085,0.0855,0.0882,0.0929,0.0871,0.0896,0.0757,0.0704,0.0567,0.042,0.0488,0.0258,0.0232,0.0219,0.0209,0.0288,0.0281,0.0342,0.0342,0.0342,0.0342,0,0.0707,0.0723,0.0771,0.0807,0.082,0.0856,0.0894,0.0942,0.0958,0.1024,0.1032,0.1016,0.094,0.0793,0.0672,0.0523,0.0402,0.033,0.0317,0.0286,0.0184,0.0178,0.021,0.0207,0.0205,0.0203,0.0201,0,0.0728,0.0759,0.081,0.0841,0.0855,0.0901,0.0941,0.0969,0.1027,0.1097,0.1147,0.1103,0.1067,0.086,0.0606,0.0386,0.0371,0.023,0.0144,0.0202,0.0173,0.017,0.0167,0.0153,0.0152,0.015,0.0149,0,0.0761,0.0777,0.0812,0.0877,0.0926,0.0987,0.1049,0.111,0.1168,0.1231,0.1316,0.13,0.1071,0.083,0.05,0.0351,0.026,0.0188,0.0294,0.0162,0.0144,0.0116,0.0117,0.0135,0.0137,0.0138,0.0138,0.0139,0.0769,0.0797,0.0842,0.0906,0.097,0.1067,0.1133,0.1224,0.1328,0.1392,0.1387,0.1314,0.1063,0.0581,0.0365,0.0126,0.0128,0.0037,0.0045,0.0054,0.0013,-0.0011,-0.0054,-0.0054,-0.0054,-0.0054,-0.0053,0,0.0765,0.0798,0.0865,0.0949,0.1034,0.1058,0.12,0.1276,0.1415,0.1398,0.1401,0.1097,0.0823,0.056,0.017,-0.0049,-0.0036,-0.0094,-0.003,-0.0017,-0.0005,-0.0046,-0.0131,-0.0131,-0.0131,-0.0132,0,0,0.0759,0.0809,0.0854,0.0982,0.1043,0.1162,0.1248,0.1358,0.139,0.1366,0.1259,0.1088,0.0809,0.0508,0.024,0.0056,0.0073,0.0021,0.0096,0.0215,0.0229,0.0072,0.0022,0,0,0,0,0]}],[{"header":{"parameterUnit":"m.s-1","parameterCategory":2,"la1":30.2991,"la2":30.254,"lo1":-89.0895,"lo2":-89.0444,"dy":0.0017,"dx":0.0017,"nx":28,"ny":28,"refTime":"2024-10-03T03:00:00:Z","depth":"4","parameterNumber":2,"parameterNumberName":"U-component_of_CURRENTS"},"data":[0,0,0,0,0,0,0,0,0,0,0,0,0,0,0,0,0,0,0,0,0,0,0,0,0,0,0,0,0,0,0,0,0,0,0,0,0,0,0,0,0,0,0,0,0,0,0,0,0,0,0,0,0,0,0,0,0,0,0.0762,0.0763,0,0.0781,0.0781,0.0781,0.081,0.0811,0.0811,0.0812,0.0869,0.087,0.0871,0,0,0,0,0,0,0,0,0,0,0,0,0,0.0712,0.0713,0.0762,0.0763,0.0763,0.0781,0.0781,0.0781,0.081,0.0811,0.0811,0.0812,0.0869,0.087,0.0871,0,0,0,0,0,0,0,0,0,0,0,0,0,0.073,0.0713,0.0762,0.0781,0.0784,0.0781,0.0781,0.0781,0.0809,0.0811,0.0812,0.0813,0.0868,0.087,0.0871,0.0856,0,0,0.0875,0.0875,0,0,0,0,0,0,0,0,0.0729,0.0732,0.0778,0.078,0.0783,0.0796,0.0784,0.0809,0.0809,0.0797,0.0812,0.0813,0.0849,0.0852,0.0849,0.0858,0.0861,0.0875,0.0875,0.0876,0.0876,0,0,0,0,0,0,0,0.0728,0.0731,0.0767,0.0779,0.0781,0.0776,0.078,0.0788,0.0815,0.0798,0.0801,0.0807,0.085,0.0847,0.0851,0.0862,0.0875,0.0876,0.0876,0.0877,0.0934,0.0935,0,0,0,0,0,0,0.0732,0.073,0.0766,0.0768,0.0761,0.0776,0.078,0.0789,0.0814,0.082,0.0806,0.0808,0.0845,0.0849,0.0853,0.0897,0.0876,0.0877,0.0878,0.0933,0.0934,0.0935,0,0,0,0,0,0,0.0731,0.0735,0.0766,0.0751,0.0755,0.0776,0.0785,0.0788,0.0808,0.082,0.0826,0.0825,0.0846,0.0851,0.0868,0.0898,0.0878,0.0879,0.0932,0.0933,0.0935,0.0948,0,0,0,0,0,0,0.0729,0.0734,0.0748,0.0751,0.0756,0.0775,0.0784,0.0788,0.081,0.0814,0.0838,0.0843,0.0847,0.0866,0.087,0.0899,0.088,0.0931,0.0933,0.0934,0.0947,0.095,0.0952,0,0,0,0,0,0.0727,0.073,0.0748,0.0753,0.0772,0.0775,0.0777,0.0793,0.081,0.0816,0.083,0.0844,0.0879,0.0867,0.0871,0.0902,0.0931,0.0932,0.0934,0.0945,0.0949,0.0952,0,0,0,0,0,0,0.0706,0.0734,0.0754,0.0764,0.0779,0.0781,0.0789,0.0804,0.0818,0.0827,0.0841,0.0846,0.0884,0.0883,0.087,0.0923,0.0912,0.0915,0.092,0.0923,0.0926,0.0948,0.0881,0,0,0,0,0,0.0711,0.0727,0.0749,0.0757,0.0769,0.0785,0.0793,0.0805,0.0815,0.0824,0.0841,0.0863,0.0889,0.0897,0.0918,0.0931,0.0933,0.0958,0.096,0.0962,0.0983,0.0986,0.0991,0.0941,0.0941,0.0941,0,0,0.0702,0.0722,0.073,0.0756,0.0769,0.0777,0.0792,0.0806,0.0814,0.0827,0.0847,0.0878,0.0897,0.0922,0.0939,0.0926,0.0976,0.0965,0.0966,0.0987,0.0989,0.0994,0.0998,0.0942,0.0942,0.0941,0,0,0.0689,0.0716,0.0729,0.0744,0.0773,0.0778,0.0789,0.0807,0.0822,0.0837,0.0865,0.0912,0.0925,0.0957,0.0972,0.1001,0.0999,0.1009,0.103,0.1032,0.1036,0.104,0.1039,0.1043,0.0999,0.0999,0.0999,0,0.0686,0.0701,0.0729,0.0745,0.076,0.0782,0.0794,0.0801,0.0822,0.0845,0.0847,0.0916,0.0947,0.0991,0.1016,0.1012,0.1003,0.1013,0.1035,0.1039,0.1043,0.1041,0.1044,0.1,0.1,0.1,0.1,0,0.0677,0.0699,0.0704,0.0736,0.0755,0.0762,0.0786,0.0805,0.0828,0.0848,0.0905,0.0937,0.0981,0.1006,0.1026,0.1078,0.106,0.1044,0.1025,0.1048,0.1045,0.1048,0.1001,0.1001,0.1001,0.1,0,0,0.0652,0.0692,0.0698,0.0721,0.0754,0.0767,0.0786,0.0818,0.0852,0.0873,0.0916,0.0984,0.1018,0.1039,0.1069,0.1091,0.1125,0.1085,0.1085,0.1082,0.1121,0.1049,0.1046,0.1099,0.11,0.1101,0.1104,0,0.0643,0.0659,0.0692,0.0716,0.0726,0.0769,0.0792,0.083,0.0862,0.0905,0.0949,0.1012,0.1017,0.1066,0.1077,0.1131,0.1137,0.1126,0.1103,0.1103,0.1033,0.1049,0.1104,0.1107,0.1108,0.1108,0.1109,0,0.063,0.0643,0.0659,0.072,0.0736,0.0763,0.0826,0.0853,0.0914,0.0956,0.1,0.1032,0.1097,0.1093,0.1134,0.1119,0.1129,0.115,0.1149,0.1086,0.1038,0.1082,0.1115,0.1115,0.1114,0.1114,0.1113,0,0.0589,0.0631,0.0642,0.0657,0.0718,0.0759,0.0805,0.0874,0.0913,0.1004,0.105,0.1086,0.1137,0.1134,0.1166,0.1155,0.1195,0.1171,0.1105,0.1099,0.1156,0.1152,0.1192,0.1192,0.1192,0.1192,0.1192,0,0.056,0.0577,0.0629,0.0641,0.0685,0.075,0.0818,0.0881,0.0959,0.1019,0.1079,0.111,0.1156,0.1167,0.1166,0.1139,0.1176,0.1123,0.1099,0.116,0.1157,0.1158,0.1154,0.1192,0.1192,0.1192,0.1192,0,0.0515,0.0536,0.0565,0.0638,0.0667,0.0707,0.0823,0.087,0.0967,0.1041,0.108,0.1146,0.1178,0.1187,0.1215,0.1153,0.114,0.112,0.1194,0.1172,0.1042,0.1039,0.104,0.1038,0.1036,0.1034,0.1032,0,0.0486,0.0489,0.0564,0.0582,0.0623,0.0693,0.0747,0.0862,0.0915,0.1042,0.1067,0.1137,0.117,0.1129,0.1146,0.1118,0.1106,0.1082,0.1065,0.1052,0.1028,0.1029,0.1028,0.1029,0.1029,0.1028,0.1027,0,0.0445,0.0479,0.0508,0.0545,0.0599,0.065,0.0741,0.0769,0.0904,0.0996,0.1046,0.106,0.1091,0.1082,0.1082,0.1052,0.1086,0.106,0.1064,0.1048,0.1038,0.1017,0.102,0.102,0.1021,0.1022,0.1022,0,0.0426,0.0433,0.0477,0.0505,0.0559,0.0593,0.0649,0.0724,0.0787,0.094,0.0941,0.1016,0.1086,0.1047,0.1028,0.1013,0.0994,0.095,0.0959,0.0967,0.094,0.0917,0.0849,0,0,0,0,0,0.0402,0.0402,0.0432,0.0464,0.0518,0.055,0.0637,0.0694,0.0818,0.084,0.0896,0.0927,0.0934,0.0944,0.0912,0.0968,0.0978,0.0922,0.0928,0.0981,0.0989,0.0962,0,0,0,0,0,0,0.038,0.0403,0.0414,0.0424,0.0439,0.0497,0.0545,0.0626,0.0643,0.0767,0.077,0.0865,0.0872,0.095,0.0894,0.0899,0.088,0.0967,0.0964,0.0976,0.0984,0.099,0.0965,0,0,0,0,0]},{"header":{"parameterUnit":"m.s-1","parameterCategory":2,"la1":30.2991,"la2":30.254,"lo1":-89.0895,"lo2":-89.0444,"dy":0.0017,"dx":0.0017,"nx":28,"ny":28,"refTime":"2024-10-03T03:00:00:Z","depth":"4","parameterNumber":3,"parameterNumberName":"V-component_of_CURRENTS"},"data":[0,0,0,0,0,0,0,0,0,0,0,0,0,0,0,0,0,0,0,0,0,0,0,0,0,0,0,0,0,0,0,0,0,0,0,0,0,0,0,0,0,0,0,0,0,0,0,0,0,0,0,0,0,0,0,0,0,0,0.025,0.025,0,0.0248,0.0248,0.0248,0.024,0.0239,0.0239,0.0238,0.024,0.0241,0.0241,0,0,0,0,0,0,0,0,0,0,0,0,0,0.0261,0.0261,0.025,0.025,0.025,0.0248,0.0248,0.0248,0.024,0.0239,0.0239,0.0238,0.024,0.0241,0.0241,0,0,0,0,0,0,0,0,0,0,0,0,0,0.026,0.0261,0.025,0.0243,0.0243,0.0247,0.0248,0.0248,0.024,0.0239,0.0239,0.0238,0.024,0.0241,0.0241,0.0258,0,0,0.0243,0.0244,0,0,0,0,0,0,0,0,0.026,0.026,0.0245,0.0244,0.0243,0.0241,0.0252,0.0251,0.024,0.0244,0.0238,0.0238,0.024,0.024,0.0245,0.0258,0.0259,0.0243,0.0244,0.0244,0.0244,0,0,0,0,0,0,0,0.026,0.026,0.0252,0.0244,0.0243,0.0244,0.0244,0.0252,0.0248,0.0243,0.0242,0.0238,0.0239,0.0244,0.0245,0.0259,0.0243,0.0244,0.0244,0.0245,0.0252,0.0252,0,0,0,0,0,0,0.0255,0.026,0.0252,0.0252,0.0247,0.0244,0.0244,0.0244,0.0247,0.0246,0.0238,0.0237,0.0244,0.0244,0.0245,0.0245,0.0244,0.0245,0.0245,0.0252,0.0252,0.0252,0,0,0,0,0,0,0.0255,0.0254,0.0252,0.0253,0.0253,0.0245,0.0246,0.0245,0.0251,0.0243,0.0242,0.0245,0.0243,0.0244,0.025,0.0246,0.0245,0.0246,0.0253,0.0252,0.0252,0.0258,0,0,0,0,0,0,0.0256,0.0255,0.026,0.0253,0.0252,0.0261,0.0246,0.0245,0.0247,0.0246,0.0248,0.0248,0.0243,0.0249,0.0251,0.0247,0.0246,0.0253,0.0252,0.0252,0.0259,0.0258,0.0258,0,0,0,0,0,0.0256,0.0267,0.0261,0.026,0.0258,0.0261,0.0262,0.0255,0.0248,0.0257,0.0252,0.0248,0.0247,0.025,0.0252,0.0248,0.0253,0.0253,0.0252,0.0259,0.0258,0.0258,0,0,0,0,0,0,0.0278,0.0267,0.026,0.0267,0.0265,0.0258,0.0266,0.026,0.0264,0.0262,0.0254,0.0254,0.0254,0.0253,0.0256,0.0247,0.0246,0.0246,0.025,0.025,0.025,0.0244,0.0247,0,0,0,0,0,0.0284,0.0289,0.0277,0.0285,0.0283,0.0276,0.0278,0.0272,0.027,0.0271,0.0271,0.0264,0.0255,0.0255,0.0253,0.0257,0.0233,0.0252,0.0252,0.0252,0.0247,0.0194,0.0189,0.025,0.025,0.025,0,0,0.0295,0.029,0.0293,0.029,0.0288,0.0289,0.0277,0.0282,0.0281,0.0271,0.0279,0.027,0.0256,0.0254,0.0253,0.0253,0.0224,0.0251,0.0251,0.0246,0.0193,0.0187,0.0181,0.025,0.025,0.025,0,0,0.0316,0.0315,0.0321,0.032,0.0314,0.0308,0.0309,0.0305,0.0302,0.0307,0.029,0.0274,0.0281,0.0258,0.0247,0.0247,0.0226,0.025,0.0245,0.0194,0.0188,0.0183,0.0155,0.0147,0.0249,0.0249,0.0249,0,0.0325,0.0332,0.0326,0.0329,0.0328,0.0315,0.032,0.0317,0.0316,0.0308,0.0311,0.0283,0.0276,0.0245,0.0243,0.0245,0.0222,0.0248,0.0193,0.0187,0.0181,0.0154,0.0145,0.0249,0.0249,0.0249,0.0249,0,0.0345,0.0351,0.0358,0.0353,0.0354,0.036,0.0346,0.0347,0.0341,0.0328,0.0307,0.0289,0.0266,0.0259,0.0254,0.0209,0.0208,0.0199,0.0192,0.0175,0.0148,0.0139,0.025,0.0249,0.0249,0.0249,0,0,0.0361,0.0368,0.037,0.0374,0.0367,0.0371,0.0365,0.0351,0.0341,0.033,0.0307,0.0282,0.0263,0.0249,0.0231,0.0188,0.0135,0.0181,0.0178,0.0152,0.0036,0.0049,0.004,0.0114,0.0112,0.0111,0.0037,0,0.0375,0.0389,0.0388,0.0402,0.0405,0.0392,0.0389,0.0374,0.0357,0.0335,0.0291,0.0275,0.0261,0.0252,0.0201,0.0153,0.0108,0.0156,0.0057,0.0054,0.0066,0.0028,0.0105,0.003,0.0028,0.0026,0.0025,0,0.0388,0.0397,0.0413,0.042,0.0421,0.0431,0.0416,0.0413,0.0369,0.0356,0.0311,0.028,0.0221,0.0213,0.0104,0.0137,0.0085,0.0045,0.0041,0.0042,0.0049,0.0047,0.0007,0.0009,0.001,0.0011,0.0012,0,0.0399,0.0413,0.043,0.0433,0.0438,0.0446,0.045,0.0421,0.0416,0.037,0.0357,0.0275,0.0245,0.0156,0.0081,0.0087,-0.004,-0.0043,-0.0083,-0.0082,-0.0073,-0.0067,-0.0134,-0.0134,-0.0134,-0.0134,-0.0134,0,0.0408,0.0423,0.0443,0.0454,0.0479,0.0472,0.0485,0.0474,0.0445,0.0438,0.0375,0.0341,0.0228,0.0146,0.0069,-0.0033,-0.0054,-0.0096,-0.011,-0.0065,-0.0058,-0.0079,-0.0072,-0.0137,-0.0136,-0.0135,-0.0135,0,0.0417,0.0427,0.0452,0.0474,0.0488,0.0508,0.0531,0.0531,0.0508,0.0492,0.0483,0.0383,0.028,0.017,0.0026,-0.0033,-0.0136,-0.0167,-0.0099,-0.0106,-0.014,-0.0132,-0.0228,-0.0229,-0.0229,-0.0229,-0.0229,0,0.0421,0.0433,0.0478,0.05,0.0519,0.0551,0.0572,0.0569,0.0569,0.0518,0.0508,0.0405,0.0335,0.0139,0.0019,-0.0136,-0.0153,-0.02,-0.0188,-0.0151,-0.0155,-0.0146,-0.0137,-0.023,-0.023,-0.023,-0.023,0,0.0429,0.0449,0.0472,0.0521,0.0561,0.0594,0.0626,0.0625,0.0615,0.0603,0.0526,0.0417,0.0295,0.0137,0.0022,-0.009,-0.0169,-0.0204,-0.0204,-0.0193,-0.0154,-0.0156,-0.0147,-0.0231,-0.0231,-0.0231,-0.0231,0,0.0439,0.0458,0.0493,0.0534,0.0583,0.0615,0.063,0.0629,0.0626,0.058,0.0551,0.0417,0.0339,0.016,0.0047,-0.0057,-0.0085,-0.0111,-0.0117,-0.0117,-0.0061,0.0007,-0.0046,0,0,0,0,0,0.0442,0.0461,0.0499,0.0543,0.059,0.0623,0.0652,0.0657,0.0656,0.0616,0.0584,0.0474,0.0288,0.0188,0.0086,0.0034,-0.0107,-0.009,-0.014,-0.0237,-0.0236,-0.0188,0,0,0,0,0,0,0.0443,0.048,0.0496,0.0543,0.0573,0.0627,0.0646,0.0645,0.0614,0.0597,0.0493,0.0461,0.0272,0.0355,0.0089,0.0054,0.001,-0.0173,-0.0175,-0.0238,-0.0237,-0.0236,-0.0186,0,0,0,0,0]}]]